PRMFG SBBR-SBGL

Flight info

Callsign PRMFG
Flight time N/A
Altitude 41000
Route GEPMO UZ24 MAVGU
Aircraft LJ35/M-SGHRWXY/SB1

Departure

Time 2026-04-30 18:26
Airport Presidente Juscelino Kubitschek International Airport (SBBR)

Arrival

Time N/A
Airport Rio Galeão – Tom Jobim International Airport (SBGL)
Time Latitude Longitude Altitude Speed Heading
2026-04-30 18:13 -15.86599 -47.90585 3472 ft 0 kts 266°
2026-04-30 18:15 -15.86436 -47.90706 3472 ft 15 kts 337°
2026-04-30 18:15 -15.86451 -47.91210 3471 ft 30 kts 266°
2026-04-30 18:16 -15.86516 -47.91622 3464 ft 19 kts 199°
2026-04-30 18:16 -15.86766 -47.91611 3464 ft 19 kts 173°
2026-04-30 18:17 -15.86900 -47.91603 3464 ft 20 kts 176°
2026-04-30 18:17 -15.87046 -47.91592 3464 ft 21 kts 174°
2026-04-30 18:17 -15.87367 -47.91571 3465 ft 21 kts 176°
2026-04-30 18:18 -15.87537 -47.91559 3452 ft 30 kts 176°
2026-04-30 18:18 -15.87725 -47.91570 3450 ft 18 kts 237°
2026-04-30 18:18 -15.87738 -47.91696 3449 ft 18 kts 266°
2026-04-30 18:18 -15.87747 -47.91844 3452 ft 21 kts 265°
2026-04-30 18:19 -15.87759 -47.91998 3450 ft 22 kts 266°
2026-04-30 18:19 -15.87762 -47.92158 3452 ft 22 kts 268°
2026-04-30 18:19 -15.87774 -47.92311 3456 ft 20 kts 264°
2026-04-30 18:19 -15.87787 -47.92453 3462 ft 19 kts 264°
2026-04-30 18:20 -15.87794 -47.92586 3465 ft 18 kts 264°
2026-04-30 18:20 -15.87803 -47.92718 3469 ft 18 kts 268°
2026-04-30 18:20 -15.87811 -47.92835 3471 ft 8 kts 267°
2026-04-30 18:20 -15.87813 -47.92900 3472 ft 10 kts 268°
2026-04-30 18:21 -15.87817 -47.92980 3472 ft 12 kts 266°
2026-04-30 18:21 -15.87822 -47.93076 3474 ft 14 kts 267°
2026-04-30 18:21 -15.87829 -47.93176 3477 ft 14 kts 259°
2026-04-30 18:21 -15.87837 -47.93272 3481 ft 13 kts 267°
2026-04-30 18:22 -15.87844 -47.93369 3484 ft 14 kts 265°
2026-04-30 18:22 -15.87859 -47.93597 3489 ft 17 kts 266°
2026-04-30 18:22 -15.87866 -47.93718 3496 ft 16 kts 265°
2026-04-30 18:23 -15.87874 -47.93834 3501 ft 17 kts 266°
2026-04-30 18:23 -15.87886 -47.93960 3502 ft 19 kts 249°
2026-04-30 18:23 -15.87969 -47.93996 3507 ft 0 kts 176°
2026-04-30 18:24 -15.87975 -47.93996 3506 ft 3 kts 176°
2026-04-30 18:25 -15.88026 -47.93989 3505 ft 11 kts 158°
2026-04-30 18:25 -15.88018 -47.93240 3477 ft 129 kts 86°
2026-04-30 18:25 -15.87949 -47.92123 3897 ft 174 kts 88°
2026-04-30 18:26 -15.89192 -47.89879 6266 ft 197 kts 160°
2026-04-30 18:26 -15.90509 -47.89887 7834 ft 185 kts 180°
2026-04-30 18:26 -15.91823 -47.89718 8816 ft 196 kts 156°
2026-04-30 18:27 -15.94298 -47.88602 10740 ft 191 kts 158°
2026-04-30 18:27 -15.95558 -47.88189 11548 ft 189 kts 159°
2026-04-30 18:28 -15.98116 -47.87350 12742 ft 208 kts 159°
2026-04-30 18:28 -15.99553 -47.86875 13224 ft 226 kts 159°
2026-04-30 18:28 -16.02762 -47.85809 14523 ft 256 kts 159°
2026-04-30 18:29 -16.04498 -47.85236 15239 ft 266 kts 159°
2026-04-30 18:29 -16.09668 -47.82089 16778 ft 314 kts 133°
2026-04-30 18:30 -16.13047 -47.78812 17677 ft 349 kts 137°
2026-04-30 18:30 -16.16904 -47.75447 18640 ft 374 kts 141°
2026-04-30 18:31 -16.19166 -47.74037 19113 ft 386 kts 152°
2026-04-30 18:31 -16.24479 -47.72636 20115 ft 405 kts 174°
2026-04-30 18:32 -16.30151 -47.73374 21186 ft 419 kts 196°
2026-04-30 18:32 -16.32852 -47.74546 21745 ft 423 kts 207°
2026-04-30 18:32 -16.37495 -47.78309 22888 ft 427 kts 228°
2026-04-30 18:33 -16.39284 -47.80788 23460 ft 429 kts 238°
2026-04-30 18:33 -16.41578 -47.86420 23258 ft 412 kts 258°
2026-04-30 18:33 -16.41947 -47.89332 23049 ft 399 kts 269°
2026-04-30 18:34 -16.41790 -47.92175 22826 ft 389 kts 280°
2026-04-30 18:34 -16.39999 -47.97305 22350 ft 370 kts 303°
2026-04-30 18:34 -16.38454 -47.99412 22099 ft 363 kts 315°
2026-04-30 18:35 -16.36565 -48.01107 21853 ft 356 kts 327°
2026-04-30 18:35 -16.34419 -48.02326 21605 ft 349 kts 340°
2026-04-30 18:35 -16.32108 -48.03059 21352 ft 344 kts 351°
2026-04-30 18:36 -16.27432 -48.02917 20867 ft 335 kts 16°
2026-04-30 18:36 -16.25266 -48.02052 20623 ft 332 kts 28°
2026-04-30 18:36 -16.21834 -47.99002 20146 ft 322 kts 54°
2026-04-30 18:37 -16.20744 -47.96994 19904 ft 317 kts 67°
2026-04-30 18:37 -16.20150 -47.94806 19663 ft 314 kts 80°
2026-04-30 18:37 -16.20026 -47.92547 19421 ft 312 kts 89°
2026-04-30 18:37 -16.20104 -47.90303 19186 ft 309 kts 91°
2026-04-30 18:38 -16.20228 -47.88081 18955 ft 306 kts 92°
2026-04-30 18:38 -16.20362 -47.85881 18731 ft 304 kts 92°
2026-04-30 18:38 -16.20498 -47.83698 18502 ft 302 kts 92°
2026-04-30 18:38 -16.20633 -47.81529 18264 ft 300 kts 92°
2026-04-30 18:39 -16.20768 -47.79366 18001 ft 298 kts 92°
2026-04-30 18:39 -16.21061 -47.77237 17735 ft 299 kts 103°
2026-04-30 18:39 -16.21847 -47.75233 17458 ft 300 kts 117°
2026-04-30 18:39 -16.23091 -47.73495 17193 ft 302 kts 131°
2026-04-30 18:40 -16.24727 -47.72113 16942 ft 304 kts 145°
2026-04-30 18:40 -16.26552 -47.71016 16693 ft 303 kts 148°
2026-04-30 18:40 -16.28345 -47.69875 16445 ft 300 kts 143°
2026-04-30 18:40 -16.29945 -47.68493 16213 ft 297 kts 133°
2026-04-30 18:41 -16.31373 -47.66953 15974 ft 296 kts 134°
2026-04-30 18:41 -16.33026 -47.65672 15731 ft 298 kts 148°
2026-04-30 18:41 -16.34952 -47.64862 15486 ft 300 kts 163°
2026-04-30 18:41 -16.37019 -47.64576 15246 ft 302 kts 177°
2026-04-30 18:42 -16.38403 -47.64683 15093 ft 304 kts 186°
2026-04-30 18:42 -16.42284 -47.66407 14627 ft 307 kts 215°
2026-04-30 18:42 -16.43807 -47.67950 14418 ft 309 kts 230°
2026-04-30 18:45 -16.41449 -47.87876 12232 ft 289 kts 335°
2026-04-30 18:45 -16.39585 -47.88637 12000 ft 288 kts 345°
2026-04-30 18:45 -16.37650 -47.89165 11779 ft 287 kts 349°
2026-04-30 18:46 -16.35701 -47.89634 11429 ft 292 kts 350°
2026-04-30 18:46 -16.33686 -47.90107 10996 ft 299 kts 349°
2026-04-30 18:46 -16.31632 -47.90582 10594 ft 304 kts 350°
2026-04-30 18:46 -16.29553 -47.91063 10217 ft 308 kts 350°
2026-04-30 18:47 -16.27450 -47.91543 9852 ft 311 kts 350°
2026-04-30 18:47 -16.25325 -47.92031 9440 ft 313 kts 350°
2026-04-30 18:47 -16.23191 -47.92527 9026 ft 314 kts 350°
2026-04-30 18:47 -16.21058 -47.93019 8671 ft 314 kts 350°
2026-04-30 18:48 -16.18942 -47.93502 8461 ft 308 kts 350°
2026-04-30 18:48 -16.16901 -47.93969 8702 ft 295 kts 350°
2026-04-30 18:48 -16.14934 -47.94429 8880 ft 286 kts 349°
2026-04-30 18:48 -16.13009 -47.94885 9036 ft 280 kts 350°
2026-04-30 18:49 -16.11122 -47.95332 9167 ft 277 kts 350°
2026-04-30 18:49 -16.09245 -47.95777 9297 ft 276 kts 350°
2026-04-30 18:49 -16.07366 -47.96225 9343 ft 278 kts 349°
2026-04-30 18:49 -16.05442 -47.96684 9184 ft 289 kts 349°
2026-04-30 18:50 -16.03455 -47.97155 9072 ft 295 kts 350°
2026-04-30 18:50 -16.01449 -47.97631 9084 ft 296 kts 349°
2026-04-30 18:50 -15.99441 -47.98111 9091 ft 295 kts 349°